[[{"header":{"parameterUnit":"m.s-1","parameterCategory":1,"la1":30.2991,"la2":30.254,"lo1":-89.0895,"lo2":-89.0444,"dy":0.0017,"dx":0.0017,"nx":28,"ny":28,"refTime":"2024-04-16T09:00:00:Z","depth":0,"parameterNumber":2,"parameterNumberName":"U-component_of_WINDS"},"data":[0,0,0,0,0,0,0,0,0,0,0,0,0,0,0,0,0,0,0,0,0,0,0,0,0,0,0,0,0,0,0,0,0,0,0,0,0,0,0,0,0,0,0,0,0,0,0,0,0,0,0,0,0,0,0,0,0,0,-4.6502,-4.6504,0,-4.6633,-4.6635,-4.6636,-4.6633,-4.6631,-4.6629,-4.6627,-4.6765,-4.677,-4.6775,0,0,0,0,0,0,0,0,0,0,0,0,0,-4.6254,-4.6259,-4.6502,-4.6504,-4.6505,-4.6633,-4.6635,-4.6637,-4.6633,-4.6631,-4.6629,-4.6627,-4.6763,-4.677,-4.6776,0,0,0,0,0,0,0,0,0,0,0,0,0,-4.6371,-4.626,-4.6502,-4.6519,-4.6522,-4.6633,-4.6635,-4.6637,-4.6633,-4.6631,-4.6628,-4.6626,-4.6761,-4.6769,-4.6777,-4.688,0,0,-4.6801,-4.6805,0,0,0,0,0,0,0,0,-4.6365,-4.638,-4.6515,-4.6518,-4.6521,-4.6614,-4.6598,-4.6719,-4.6634,-4.6591,-4.6627,-4.6624,-4.6717,-4.6729,-4.6759,-4.6887,-4.6893,-4.6802,-4.6807,-4.681,-4.6813,0,0,0,0,0,0,0,-4.6357,-4.6375,-4.6554,-4.6517,-4.6521,-4.6522,-4.6535,-4.6621,-4.6668,-4.6595,-4.6595,-4.661,-4.6718,-4.6751,-4.6762,-4.6895,-4.6802,-4.6809,-4.6814,-4.6817,-4.7116,-4.7119,0,0,0,0,0,0,-4.6344,-4.6368,-4.655,-4.6558,-4.6435,-4.6528,-4.6544,-4.6587,-4.6667,-4.6676,-4.6612,-4.6609,-4.6739,-4.6753,-4.6767,-4.6894,-4.681,-4.6818,-4.6822,-4.7113,-4.7116,-4.712,0,0,0,0,0,0,-4.6339,-4.636,-4.6545,-4.6463,-4.6487,-4.6536,-4.6584,-4.6591,-4.6624,-4.668,-4.6689,-4.6637,-4.6737,-4.6756,-4.6852,-4.6899,-4.6821,-4.6829,-4.7109,-4.7114,-4.7118,-4.7148,0,0,0,0,0,0,-4.6332,-4.6359,-4.6397,-4.6464,-4.6491,-4.6626,-4.6587,-4.6595,-4.6637,-4.6635,-4.6706,-4.6715,-4.6737,-4.684,-4.686,-4.6908,-4.6835,-4.7105,-4.7111,-4.7117,-4.7143,-4.7153,-4.7161,0,0,0,0,0,-4.6323,-4.6401,-4.6399,-4.6421,-4.654,-4.6629,-4.6644,-4.6667,-4.6641,-4.6681,-4.6717,-4.6712,-4.6891,-4.685,-4.6873,-4.6924,-4.7102,-4.7109,-4.7116,-4.7139,-4.7151,-4.7161,0,0,0,0,0,0,-4.6338,-4.6409,-4.6408,-4.651,-4.6563,-4.6628,-4.6678,-4.6679,-4.6742,-4.6737,-4.6764,-4.678,-4.6876,-4.691,-4.6864,-4.7029,-4.6993,-4.7005,-4.7003,-4.7015,-4.7024,-4.7013,-4.6842,0,0,0,0,0,-4.6353,-4.6418,-4.6478,-4.6562,-4.6588,-4.6629,-4.6669,-4.6682,-4.6738,-4.6761,-4.6805,-4.6861,-4.693,-4.6975,-4.7041,-4.7149,-4.7164,-4.7195,-4.7204,-4.7212,-4.7221,-4.7282,-4.7296,-4.7143,-4.7143,-4.7143,0,0,-4.6385,-4.6432,-4.6472,-4.6566,-4.6609,-4.6677,-4.6648,-4.6721,-4.6772,-4.6773,-4.6866,-4.69,-4.6965,-4.7068,-4.7115,-4.7099,-4.7268,-4.7221,-4.7226,-4.7232,-4.729,-4.7305,-4.7318,-4.7148,-4.7147,-4.7146,0,0,-4.6478,-4.652,-4.6594,-4.6638,-4.6703,-4.673,-4.6748,-4.6814,-4.6836,-4.693,-4.6933,-4.6995,-4.7113,-4.7159,-4.7198,-4.7312,-4.731,-4.7333,-4.7381,-4.7439,-4.7451,-4.7462,-4.7503,-4.7517,-4.7342,-4.7343,-4.7343,0,-4.6509,-4.661,-4.6633,-4.6706,-4.6748,-4.6752,-4.6829,-4.6871,-4.6955,-4.6985,-4.6965,-4.7114,-4.7158,-4.7272,-4.7299,-4.7331,-4.7354,-4.7324,-4.7448,-4.7459,-4.7469,-4.7508,-4.7523,-4.7345,-4.7345,-4.7344,-4.7344,0,-4.6646,-4.6716,-4.6769,-4.6849,-4.6898,-4.6972,-4.7008,-4.7055,-4.7065,-4.7094,-4.7191,-4.7245,-4.7322,-4.7351,-4.7361,-4.7467,-4.7455,-4.7442,-4.7406,-4.7486,-4.7523,-4.7538,-4.7348,-4.7347,-4.7347,-4.7346,0,0,-4.6749,-4.6842,-4.6861,-4.6898,-4.6972,-4.7027,-4.7104,-4.7179,-4.7218,-4.7278,-4.7342,-4.7443,-4.7432,-4.7476,-4.7493,-4.7544,-4.7631,-4.7525,-4.7527,-4.7542,-4.7751,-4.776,-4.7776,-4.7631,-4.7634,-4.7636,-4.7745,0,-4.6849,-4.6982,-4.7006,-4.7123,-4.7189,-4.7195,-4.7262,-4.7315,-4.7345,-4.7407,-4.7442,-4.7513,-4.7492,-4.7519,-4.7571,-4.7609,-4.7673,-4.7602,-4.7692,-4.7695,-4.7674,-4.7796,-4.7805,-4.7905,-4.776,-4.7762,-4.7764,0,-4.6982,-4.7043,-4.7166,-4.7232,-4.7261,-4.732,-4.7392,-4.745,-4.7512,-4.7531,-4.7582,-4.7593,-4.7674,-4.7636,-4.7749,-4.7701,-4.774,-4.7765,-4.7769,-4.7777,-4.7733,-4.7806,-4.7937,-4.7952,-4.7787,-4.7785,-4.7784,0,-4.7044,-4.7158,-4.7247,-4.7278,-4.7357,-4.7399,-4.7434,-4.7493,-4.7537,-4.7601,-4.763,-4.7703,-4.7743,-4.78,-4.7831,-4.7801,-4.7942,-4.7907,-4.7961,-4.796,-4.7989,-4.7986,-4.8127,-4.8016,-4.8016,-4.8015,-4.8015,0,-4.7152,-4.7227,-4.7276,-4.733,-4.7415,-4.7443,-4.7527,-4.7562,-4.7615,-4.7678,-4.7689,-4.7748,-4.7786,-4.7851,-4.7876,-4.7966,-4.7984,-4.8003,-4.8008,-4.8001,-4.7998,-4.8025,-4.8019,-4.802,-4.8019,-4.8018,-4.8017,0,-4.7235,-4.727,-4.7367,-4.7435,-4.7454,-4.7513,-4.7572,-4.7626,-4.7657,-4.7737,-4.7757,-4.7807,-4.7884,-4.7921,-4.8018,-4.8035,-4.8137,-4.8138,-4.8115,-4.8117,-4.8168,-4.8163,-4.833,-4.8354,-4.8228,-4.823,-4.8231,0,-4.73,-4.7358,-4.7432,-4.7474,-4.751,-4.7578,-4.7623,-4.7655,-4.7702,-4.7777,-4.7823,-4.79,-4.7964,-4.8087,-4.8133,-4.8207,-4.821,-4.8264,-4.8221,-4.8212,-4.821,-4.8206,-4.8212,-4.8271,-4.8272,-4.8273,-4.8274,0,-4.7413,-4.7428,-4.7492,-4.7563,-4.7616,-4.7674,-4.7731,-4.7766,-4.7807,-4.7859,-4.7938,-4.7987,-4.8085,-4.8162,-4.824,-4.8278,-4.8284,-4.8287,-4.8304,-4.8296,-4.828,-4.8288,-4.8135,-4.8283,-4.8282,-4.8281,-4.8281,-4.828,-4.7489,-4.7541,-4.7601,-4.7672,-4.7719,-4.7772,-4.7826,-4.7865,-4.793,-4.8011,-4.8027,-4.8111,-4.8173,-4.8278,-4.8319,-4.8386,-4.8374,-4.8398,-4.8404,-4.8409,-4.8411,-4.827,-4.8401,-4.8401,-4.84,-4.84,-4.84,0,-4.7601,-4.7641,-4.7706,-4.7785,-4.7842,-4.7842,-4.7905,-4.7953,-4.8026,-4.8084,-4.8146,-4.8237,-4.8313,-4.8365,-4.8442,-4.8486,-4.8491,-4.8505,-4.8502,-4.8511,-4.8418,-4.8395,-4.85,-4.85,-4.85,-4.85,-4.85,-4.85,-4.7666,-4.7754,-4.7777,-4.7889,-4.7929,-4.8009,-4.8046,-4.8096,-4.8142,-4.8243,-4.8305,-4.8339,-4.8395,-4.8476,-4.8546,-4.856,-4.8588,-4.8603,-4.8616,-4.8528,-4.8517,-4.8507,-4.8486,-4.8609,-4.8609,-4.8703,-4.8704,-4.8705]},{"header":{"parameterUnit":"m.s-1","parameterCategory":1,"la1":30.2991,"la2":30.254,"lo1":-89.0895,"lo2":-89.0444,"dy":0.0017,"dx":0.0017,"nx":28,"ny":28,"refTime":"2024-04-16T09:00:00:Z","depth":0,"parameterNumber":3,"parameterNumberName":"V-component_of_WINDS"},"data":[0,0,0,0,0,0,0,0,0,0,0,0,0,0,0,0,0,0,0,0,0,0,0,0,0,0,0,0,0,0,0,0,0,0,0,0,0,0,0,0,0,0,0,0,0,0,0,0,0,0,0,0,0,0,0,0,0,0,4.04,4.0401,0,4.0552,4.0554,4.0556,4.0634,4.0634,4.0634,4.0635,4.079,4.0793,4.0797,0,0,0,0,0,0,0,0,0,0,0,0,0,4.0178,4.0181,4.04,4.0402,4.0403,4.0552,4.0554,4.0556,4.0634,4.0634,4.0634,4.0635,4.0788,4.0793,4.0798,0,0,0,0,0,0,0,0,0,0,0,0,0,4.0296,4.0182,4.0399,4.046,4.0467,4.0551,4.0554,4.0557,4.0634,4.0634,4.0635,4.0635,4.0787,4.0792,4.0798,4.0833,0,0,4.0817,4.082,0,0,0,0,0,0,0,0,4.0289,4.0304,4.045,4.0456,4.0464,4.0574,4.0533,4.0649,4.0634,4.0571,4.0635,4.0635,4.0718,4.0729,4.0758,4.084,4.0847,4.0818,4.0821,4.0824,4.0825,0,0,0,0,0,0,0,4.0281,4.0298,4.046,4.0452,4.0461,4.0481,4.0498,4.0555,4.0642,4.0576,4.0582,4.0599,4.0722,4.0752,4.0762,4.0849,4.0817,4.0823,4.0826,4.0829,4.0971,4.0971,0,0,0,0,0,0,4.0263,4.0291,4.0455,4.0465,4.0376,4.0484,4.0504,4.0539,4.0641,4.0657,4.0599,4.0603,4.0741,4.0755,4.0768,4.0817,4.0824,4.0829,4.0833,4.0971,4.0971,4.0971,0,0,0,0,0,0,4.0258,4.0277,4.0449,4.038,4.0403,4.0488,4.0527,4.0542,4.0572,4.0658,4.0674,4.0614,4.0742,4.0759,4.0817,4.0824,4.0832,4.0838,4.097,4.0971,4.0971,4.0914,0,0,0,0,0,0,4.0251,4.0275,4.0288,4.0379,4.0406,4.0495,4.0528,4.0545,4.0582,4.0588,4.0676,4.0691,4.0743,4.0807,4.0823,4.0832,4.0842,4.097,4.097,4.0971,4.0916,4.0913,4.091,0,0,0,0,0,4.0243,4.0265,4.0288,4.0308,4.0425,4.0495,4.0511,4.0571,4.0582,4.0597,4.0653,4.0688,4.082,4.0813,4.0831,4.0842,4.097,4.097,4.0971,4.0918,4.0913,4.091,0,0,0,0,0,0,4.0172,4.0278,4.0305,4.0358,4.0417,4.0509,4.0529,4.0564,4.0621,4.0624,4.0696,4.0715,4.0767,4.081,4.08,4.0882,4.0899,4.0903,4.0852,4.0849,4.0846,4.0835,4.0847,0,0,0,0,0,4.0163,4.0211,4.0301,4.0339,4.0367,4.0443,4.0476,4.0517,4.0581,4.0607,4.0667,4.0728,4.0783,4.0818,4.0874,4.0922,4.0944,4.0939,4.0936,4.0933,4.0936,4.0967,4.0967,4.0972,4.0972,4.0972,0,0,4.0144,4.0208,4.0234,4.0326,4.0377,4.0426,4.0463,4.0513,4.0551,4.0614,4.0673,4.0719,4.0792,4.0846,4.0873,4.0884,4.0939,4.0933,4.093,4.0935,4.0967,4.0967,4.0966,4.0972,4.0972,4.0972,0,0,4.0135,4.0187,4.0225,4.0276,4.0353,4.0403,4.0412,4.0499,4.0533,4.0593,4.0643,4.0688,4.0782,4.0833,4.087,4.0882,4.0917,4.0898,4.0882,4.0912,4.0911,4.0911,4.0918,4.0919,4.0901,4.0901,4.09,0,4.0101,4.0177,4.024,4.0289,4.0329,4.0389,4.043,4.0475,4.0566,4.0593,4.0603,4.0724,4.0777,4.0845,4.0848,4.0876,4.089,4.0889,4.0906,4.0907,4.0908,4.0915,4.0916,4.0898,4.0898,4.0898,4.0899,0,4.0133,4.0185,4.0207,4.0295,4.0337,4.038,4.0451,4.0487,4.0525,4.0574,4.0636,4.0702,4.0773,4.0792,4.0829,4.0866,4.087,4.0892,4.0911,4.0904,4.0911,4.0914,4.0894,4.0895,4.0896,4.0896,0,0,4.0084,4.0207,4.0214,4.0256,4.0346,4.0388,4.0434,4.0505,4.0535,4.0595,4.0638,4.0716,4.0738,4.0781,4.0824,4.085,4.0858,4.087,4.0872,4.0867,4.0905,4.0889,4.0891,4.0881,4.0882,4.0882,4.0899,0,4.0089,4.0176,4.0236,4.03,4.035,4.0409,4.045,4.051,4.0558,4.0608,4.066,4.0716,4.0739,4.0766,4.0794,4.0851,4.0867,4.085,4.0922,4.0924,4.0903,4.0894,4.0877,4.089,4.0903,4.0903,4.0904,0,4.0106,4.0167,4.0236,4.0323,4.0347,4.0382,4.0453,4.0499,4.0569,4.0602,4.0651,4.0695,4.0748,4.0761,4.0836,4.0824,4.0856,4.0889,4.0891,4.0901,4.0914,4.0906,4.0895,4.0898,4.0908,4.0908,4.0908,0,4.0066,4.0165,4.022,4.0253,4.0355,4.0379,4.0423,4.0493,4.0532,4.0594,4.062,4.0686,4.0723,4.0773,4.0835,4.0838,4.0904,4.0922,4.0934,4.0932,4.0946,4.0944,4.0942,4.0964,4.0964,4.0964,4.0964,0,4.0067,4.0107,4.0203,4.0237,4.0285,4.0353,4.0399,4.0447,4.051,4.0555,4.0609,4.065,4.0728,4.0779,4.0827,4.0883,4.0898,4.0927,4.094,4.0923,4.092,4.0946,4.0948,4.0965,4.0964,4.0964,4.0964,0,4.003,4.0096,4.016,4.0252,4.0276,4.0307,4.0386,4.0422,4.0473,4.0529,4.0546,4.0626,4.0689,4.0755,4.084,4.0873,4.0927,4.0943,4.0903,4.0911,4.092,4.0919,4.0936,4.0942,4.0958,4.0958,4.0957,0,4.0027,4.006,4.0156,4.019,4.0233,4.0287,4.0328,4.0396,4.0437,4.052,4.0545,4.0612,4.067,4.0767,4.0833,4.0899,4.0918,4.092,4.0929,4.0912,4.0921,4.0918,4.0923,4.0917,4.0917,4.0916,4.0916,0,4.0015,4.0047,4.0103,4.0172,4.0219,4.0276,4.0336,4.0361,4.0441,4.0483,4.0549,4.0593,4.0681,4.0747,4.0821,4.0866,4.0905,4.0913,4.0919,4.0903,4.088,4.0895,4.0897,4.0912,4.0913,4.0913,4.0913,4.0913,3.9997,4.003,4.0103,4.0165,4.0217,4.0271,4.031,4.0366,4.0422,4.05,4.0536,4.0602,4.0673,4.0776,4.082,4.0873,4.0884,4.0893,4.0896,4.0897,4.0894,4.087,4.0886,4.0886,4.0887,4.0887,4.0887,0,3.999,4.004,4.0096,4.0178,4.0227,4.026,4.0327,4.0366,4.0424,4.0486,4.0542,4.0618,4.0683,4.0754,4.0823,4.0852,4.0871,4.0868,4.0867,4.0877,4.0879,4.0867,4.0851,4.0851,4.0851,4.0851,4.0851,4.0851,3.9992,4.005,4.009,4.0175,4.0226,4.0291,4.0327,4.0378,4.0429,4.0511,4.0566,4.0612,4.0678,4.0753,4.0814,4.0834,4.0857,4.0849,4.0873,4.0874,4.0877,4.0879,4.0869,4.0853,4.0853,4.0867,4.0867,4.0867]}]]